Regional Weather Roundup
Issued by NWS

Home | Current Version | Previous Version | Text Only | Print | Product List | Glossary On
Versions: 1 2 3 4 5 6 7 8 9 10 11 12 13 14 15 16 17 18 19 20 21 22 23 24 25 26 27 28 29 30 31 32 33 34 35 36 37 38 39 40 41 42 43 44 45 46 47 48 49 50
000
ASUS43 KMKX 041600
RWRWI

WISCONSIN REGIONAL WEATHER ROUNDUP
NATIONAL WEATHER SERVICE MILWAUKEE/SULLIVAN WI
1100 AM CDT FRI SEP 04 2015

NOTE: "FAIR" INDICATES FEW OR NO CLOUDS BELOW 12,000 FEET WITH NO
SIGNIFICANT WEATHER AND/OR OBSTRUCTIONS TO VISIBILITY.

WIZ001-002-006>008-014>016-023>028-041700-
NORTHWEST WISCONSIN

CITY           SKY/WX    TMP DP  RH WIND       PRES   REMARKS
SUPERIOR ARPT  MOSUNNY   63  60  88 E10       30.00S
ASHLAND        SUNNY     74  66  76 VRB3      30.02S
HAYWARD        MOSUNNY   75  64  68 SE12      30.02F
SIREN          SUNNY     78  65  65 SE10      29.97S HX  80
CUMBERLAND     MOSUNNY   72  64  78 E10       30.01S
RICE LAKE      CLOUDY    72  64  75 SE9       30.03S
CHETEK         CLOUDY    72  66  81 SE7       30.02S
LADYSMITH      PTSUNNY   76  65  67 SE8       30.05S
EAU CLAIRE     NOT AVBL
MENOMONIE      SUNNY     78  67  69 E10       29.99F HX  80
NEW RICHMOND   SUNNY     77  66  70 SE12      29.97S
OSCEOLA        SUNNY     78  68  72 SE12      29.99S HX  80
$$

WIZ003>005-009-010-017-018-041700-
NORTH CENTRAL WISCONSIN

CITY           SKY/WX    TMP DP  RH WIND       PRES   REMARKS
MANITOWISH WTR SUNNY     73  65  74 SE7       30.07R
ARBOR VITAE    SUNNY     76  66  70 SE9       30.08R
WOODRUFF       SUNNY     76  66  70 SE9       30.08R
RHINELANDER    SUNNY     76  63  64 E9        30.08S
EAGLE RIVER    SUNNY     74  59  58 SE9G16    30.08F
LAND O LAKES   SUNNY     76  60  58 SE7       30.10S
PHILLIPS       SUNNY     74  65  72 SE8       30.06R
TOMAHAWK       SUNNY     73  64  73 SE7       30.07S
MEDFORD        MOSUNNY   71  65  83 SE6       30.07S
MERRILL        SUNNY     74  66  76 SE8       30.07S
$$

WIZ029-030-035-036-043>047-041700-
CENTRAL WISCONSIN

CITY           SKY/WX    TMP DP  RH WIND       PRES   REMARKS
WAUSAU         PTSUNNY   71  64  78 SE9       30.06R
MOSINEE        CLOUDY    66  66 100 E8        30.08S
MARSHFIELD     CLOUDY    68  62  81 SE9       30.07S
STEVENS POINT  CLOUDY    65  63  93 E6        30.08R
WAUPACA        CLOUDY    69  69  99 E6        30.06S
WAUTOMA        NOT AVBL
WISC RAPIDS    CLOUDY    68  63  84 SE8       30.07S
CAMP DOUGLAS   NOT AVBL
$$

WIZ011>013-019>022-031-037>040-048>050-041700-
NORTHEAST WISCONSIN

CITY           SKY/WX    TMP DP  RH WIND       PRES   REMARKS
ANTIGO         SUNNY     73  65  77 E7        30.08S
SHAWANO        NOT AVBL
OCONTO         PTSUNNY   70  68  93 NE3       30.04F
STURGEON BAY   CLOUDY    72  64  78 E3        30.07S
GREEN BAY      MOSUNNY   71  65  81 NE5       30.04F
MANITOWOC      NOT AVBL
APPLETON       CLOUDY    70  66  88 VRB6      30.05R
CLINTONVILLE   PTSUNNY   73  64  73 S5        30.05F
OSHKOSH        CLOUDY    70  64  81 CALM      30.05S
$$

WIZ032>034-041-042-053>061-041700-
SOUTHWEST WISCONSIN

CITY           SKY/WX    TMP DP  RH WIND       PRES   REMARKS
LA CROSSE      SUNNY     81  69  67 S8        29.99F HX  84
SPARTA         MOSUNNY   77  64  63 E8        30.03F
VIROQUA          N/A     78  69  74 SE6       30.04S HX  80
BOSCOBEL       SUNNY     82  69  64 VRB5      30.02R HX  85
PRAIRIE DU CHI SUNNY     79  68  69 SE5       30.01S HX  81
PLATTEVILLE    SUNNY     78  72  82 CALM      30.03S HX  80
$$

WIZ056-057-062-063-064-067-068-041700-
SOUTH CENTRAL WISCONSIN

CITY           SKY/WX    TMP DP  RH WIND       PRES   REMARKS
REEDSBURG      MOSUNNY   73  67  80 NE6       30.04S
BARABOO/DELLS  CLOUDY    71  64  78 E8        30.05F HAZE
LONE ROCK      NOT AVBL
MINERAL POINT  SUNNY     79  70  73 S3        30.05R HX  81
MADISON        PTSUNNY   75  66  73 E5        30.04S
MIDDLETON      MOSUNNY   77  67  71 SE5       30.05S
WATERTOWN      CLOUDY    68  68 100 E3        30.06S FOG
MONROE         SUNNY     77  68  73 E6        30.05S
JANESVILLE     PTSUNNY   79  68  69 SE8       30.04S HX  81
$$

WIZ051-052-058>065-066-070>072-041700-
SOUTHEAST WISCONSIN

CITY           SKY/WX    TMP DP  RH WIND       PRES   REMARKS
MILWAUKEE      MOSUNNY   73  65  75 NE10      30.05R
WAUKESHA       MOSUNNY   70  64  83 CALM      30.06S
MILWAUKEE/TIMM CLOUDY    72  63  73 CALM      30.06S
RACINE         CLOUDY    74  64  71 VRB6      30.06S
BURLINGTON     CLOUDY    69  64  83 NE3       30.05S
KENOSHA        CLOUDY    72  65  78 N5        30.06R
FOND DU LAC    CLOUDY    71  65  81 CALM      30.06R
SHEBOYGAN      CLOUDY    69  66  90 NE6       30.05R
WEST BEND      CLOUDY    68  63  83 CALM      30.06R
JUNEAU         CLOUDY    69  64  85 E3        30.07S
$$

LSZ147-162-041700-
LAKE SUPERIOR

STATION/POSITION TIME  TEMP    WIND        PRES    WAVE
                       AIR SEA DIR/SP/G            HT/PER
                 (UTC) (F)     (DEG/KT/KT) (MB)    (FT/S)
W MID LAKE BUOY  1450   60 57   90/  8/  8 1017.4S   0
DEVILS ISLAND    1500   61      50/  5/  6 1016.9S
PORT WING        1500   56      20/ 12/ 13 1016.6R
SAXON HARBOR     1500   66        CALM     1016.3S
$$

LMZ867-665-643>646-041700-
LAKE MICHIGAN

STATION/POSITION TIME  TEMP    WIND        PRES    WAVE
                       AIR SEA DIR/SP/G            HT/PER
                 (UTC) (F)     (DEG/KT/KT) (MB)    (FT/S)
CHAMBERS ISLAND  1500   70     340/  5/  7 1017.6R
S GREEN BAY BUOY 1400   65 66  340/  4/  6 1018.6R
N MID LAKE BUOY  1450   67 66  110/  8/ 10 1016.8R   2/ 4
NORTHPORT PIER   1500   69     100/  5/  7 1017.3R
SISTER BAY       1511   75     120/  8/ 13   N/A
ALGOMA LAKESHORE 1544           70/  8/  8   N/A
KEWAUNEE LAKESHO 1500   68      30/  2/  5 1016.4R
SHEBOYGAN LAKESH 1500   60      10/  8/  9 1017.5R
PORT WASHINGTON  1500   63     100/  2/  2 1017.9R
ATWATER BUOY     1500   63     340/  4/  4 1018.9R
MILWAUKEE LAKESH 1510   68      20/  7/  8   N/A
S MID LAKE BUOY  1550   67 71  320/  6/  8 1016.8    1/ 4
KENOSHA   LAKESH 1500   65      40/  4/  5 1017.3R
$$

TC  - TEMPERATURE IN CELSIUS
VSB - VISIBILITY IN STATUTE MILES
WCI - WIND CHILL INDEX
HX  - HEAT INDEX




USA.gov is the U.S. government's official web portal to all federal, state and local government web resources and services.